Location: Newark
(44.6768°N, 22.5302°E)
Time: 09:12:14
(UTC+00:00)

CAS-6 - Pass Details

Date: 30 June 2022
Orbit: 613 x 634 km, 97.9° (Epoch: 14 August)

Event Time Altitude Azimuth Distance (km) Brightness Sun altitude
Exits shadow 21:20:16 29° 221° (SW) 1,148 ? -20.2°
Maximum altitude 21:21:43 38° 262° (W) 962 ? -20.2°
Drops below altitude 10° 21:25:47 10° 331° (NNW) 2,005 ? -20.4°
Sets 21:28:07 0° 340° (NNW) 2,912 ? -20.6°
